Temperature
21 21 21 21 21 21 20 20 20 21 19 17 16 14 12 10 11 10 9 9 9 10 11 12 13 13 14 14 14 15 15 15 15 15 15 15 15 15 15 15 15 15 15 15 15 15 15 16 16
22 22 21 22 22 20 19 19 19 20 19 17 15 13 12 9 8 8 9 9 10 10 10 12 12 13 13 14 14 14 14 14 14 15 15 15 15 15 15 15 15 14 14 15 15 15 15 15 16
23 22 22 21 20 19 18 19 19 18 18 16 13 11 9 9 8 9 9 9 10 10 10 11 12 12 13 13 13 13 13 14 14 14 14 14 14 14 14 14 14 14 14 14 15 15 15 15 15
21 22 23 19 17 17 18 18 20 19 17 16 14 11 8 8 9 9 9 9 9 10 10 11 11 12 12 12 12 13 13 13 13 13 13 13 14 14 14 14 14 14 14 14 14 14 15 15 15
22 23 20 18 17 16 17 17 17 17 17 15 13 11 9 9 9 9 9 9 9 9 10 10 11 11 12 12 12 12 12 12 12 12 13 13 13 13 13 13 14 14 14 14 14 14 14 15 15
24 25 20 18 17 16 15 15 15 15 14 14 13 11 10 9 10 9 9 9 9 9 10 10 11 11 11 11 11 11 12 12 12 12 12 12 12 12 12 13 13 13 13 14 14 14 14 14 14
24 22 20 19 17 16 16 14 13 12 12 12 13 12 10 9 9 9 8 8 8 9 9 10 10 11 11 11 11 11 11 11 11 11 12 12 12 12 12 12 12 12 13 13 13 13 14 14 14
24 22 21 20 18 15 14 13 12 11 10 10 11 10 9 9 9 8 8 8 8 8 9 9 10 10 10 10 10 10 10 10 10 10 10 11 11 12 12 12 12 12 12 12 12 13 13 13 14
24 20 18 19 17 15 14 13 11 10 10 9 9 9 8 8 8 8 7 8 8 8 8 9 9 9 9 10 9 9 9 8 8 8 8 9 10 10 11 11 11 11 11 11 12 12 12 13 13
21 17 16 16 16 15 14 14 13 12 10 10 9 8 8 7 7 7 6 6 7 7 7 7 8 8 8 8 8 8 7 7 6 6 6 6 7 7 8 9 10 11 11 11 11 11 12 12 12
19 16 15 15 14 14 13 12 12 11 9 9 8 8 7 6 6 6 5 5 5 5 6 6 7 7 7 6 6 5 5 5 5 4 4 4 4 5 6 7 8 9 10 10 11 11 11 11 11
16 16 15 14 14 13 12 11 9 9 8 8 7 7 6 6 5 5 5 5 5 5 5 5 4 4 4 4 4 3 3 3 3 2 2 2 2 3 4 4 5 6 6 7 8 10 10 11 11
14 13 12 12 11 11 10 10 9 8 8 8 7 7 6 5 5 4 4 4 4 4 3 3 3 2 2 2 3 2 2 1 1 1 0 0 1 1 1 2 3 3 4 5 6 7 8 9 10
14 13 12 12 12 11 10 10 9 9 8 8 7 6 6 5 4 4 4 3 3 2 2 2 2 2 2 2 2 1 1 0 0 -0 -1 -1 -1 -1 -0 0 1 1 1 2 4 4 5 7 8
14 13 13 13 12 11 11 10 9 9 9 9 8 7 6 5 4 3 3 2 2 1 1 1 1 1 1 1 1 1 0 0 -1 -1 -1 -2 -2 -2 -2 -2 -1 -1 -1 0 1 2 3 4 6
16 15 14 14 14 13 12 10 9 9 9 9 8 7 7 6 4 3 2 2 1 0 0 0 -0 -0 0 -0 -0 -0 -1 -1 -1 -2 -2 -3 -3 -3 -3 -3 -3 -3 -2 -2 -1 0 1 3 4
18 18 15 14 14 14 13 10 9 9 9 9 8 7 7 6 5 3 2 1 0 -0 -1 -1 -1 -1 -1 -1 -1 -1 -2 -2 -3 -3 -4 -4 -4 -4 -4 -4 -4 -4 -3 -3 -3 -2 -1 0 2
19 20 18 14 13 14 13 9 9 9 9 9 8 7 6 5 4 3 2 1 -0 -1 -1 -2 -2 -2 -2 -2 -2 -2 -2 -3 -4 -5 -5 -5 -5 -5 -5 -5 -5 -5 -5 -4 -4 -4 -3 -2 -1
20 20 18 14 12 13 12 9 8 9 8 8 7 7 6 5 4 3 2 1 -1 -1 -2 -2 -3 -3 -4 -4 -4 -4 -4 -4 -4 -5 -5 -6 -6 -6 -6 -6 -6 -6 -6 -6 -5 -5 -4 -3 -2
19 19 17 13 12 12 12 10 9 9 8 7 7 6 6 5 4 3 1 0 -1 -2 -3 -4 -4 -4 -5 -5 -5 -5 -6 -6 -6 -6 -6 -7 -7 -7 -7 -7 -7 -7 -7 -6 -6 -5 -5 -4 -4
19 17 15 15 11 11 11 10 9 8 8 7 7 7 6 5 3 2 1 -0 -2 -3 -4 -4 -5 -5 -5 -6 -6 -6 -6 -6 -6 -6 -7 -7 -8 -8 -8 -8 -8 -8 -7 -7 -7 -6 -5 -5 -4
17 14 14 14 12 12 11 10 8 7 7 8 7 7 5 4 3 2 0 -1 -2 -3 -4 -4 -5 -5 -6 -6 -7 -7 -8 -8 -8 -8 -8 -8 -8 -9 -9 -8 -8 -8 -8 -8 -7 -6 -6 -5 -4
15 14 14 14 13 13 11 11 9 8 7 7 7 6 5 4 3 1 0 -1 -3 -4 -4 -5 -5 -6 -6 -7 -7 -8 -9 -9 -9 -9 -9 -8 -9 -9 -9 -9 -9 -9 -9 -8 -8 -7 -6 -5 -5
14 14 14 14 13 13 14 12 10 8 8 7 6 6 5 4 2 1 -0 -2 -3 -4 -5 -5 -6 -6 -7 -7 -8 -8 -9 -9 -9 -9 -9 -9 -9 -10 -10 -10 -10 -10 -9 -9 -8 -7 -6 -6 -5
15 15 14 14 13 14 14 13 8 7 6 6 6 5 4 3 2 0 -1 -2 -3 -4 -5 -5 -6 -6 -7 -8 -8 -9 -10 -10 -10 -11 -11 -11 -11 -11 -11 -11 -11 -10 -10 -9 -9 -8 -7 -6 -6
15 15 13 13 13 14 13 11 6 6 6 6 6 5 4 2 1 -1 -2 -3 -4 -4 -5 -5 -6 -7 -7 -8 -9 -9 -10 -11 -11 -11 -11 -11 -12 -12 -12 -12 -12 -11 -11 -10 -9 -8 -7 -7 -6
14 14 13 12 13 13 13 7 6 7 7 7 6 4 3 1 0 -1 -2 -3 -4 -5 -5 -6 -7 -7 -8 -8 -9 -10 -10 -11 -11 -12 -12 -12 -12 -12 -12 -12 -12 -12 -11 -10 -9 -9 -8 -7 -7
14 13 13 12 12 11 13 12 7 6 6 6 5 4 2 1 -1 -2 -3 -3 -4 -5 -6 -6 -7 -8 -9 -9 -10 -10 -11 -11 -12 -12 -12 -12 -12 -12 -12 -12 -12 -12 -12 -11 -10 -9 -8 -8 -7
14 14 14 13 12 10 10 9 7 6 5 5 5 3 2 0 -1 -2 -3 -4 -4 -5 -6 -7 -7 -8 -9 -10 -10 -11 -11 -12 -12 -12 -13 -13 -13 -13 -13 -13 -13 -13 -12 -11 -10 -9 -8 -8 -8
12 13 13 11 12 12 10 8 7 6 6 6 4 3 1 -0 -2 -3 -4 -4 -5 -6 -6 -7 -8 -9 -9 -10 -11 -11 -12 -12 -13 -13 -13 -13 -13 -13 -13 -13 -13 -13 -12 -11 -11 -9 -9 -8 -8
Wind_Speed
18 17 6 1 1 9 17 15 15 12 9 19 17 14 14 13 10 7 6 12 17 14 20 26 30 31 32 32 31 31 30 30 30 29 27 25 22 19 17 16 15 15 14 13 12 12 12 12 12
13 11 4 2 7 12 13 13 17 18 13 12 15 15 13 12 8 4 7 14 16 14 18 25 28 29 30 31 31 31 31 30 30 30 29 27 26 23 20 18 17 17 16 15 14 14 13 12 12
10 7 2 4 12 11 10 10 12 20 21 11 9 11 8 7 6 4 7 13 14 16 19 25 28 28 29 30 30 30 30 30 30 30 29 28 27 27 25 22 19 17 16 16 15 15 14 13 13
5 3 4 12 19 16 13 12 8 12 14 15 12 10 7 4 2 4 7 13 13 17 21 24 29 29 29 29 30 29 30 30 29 30 30 28 27 27 26 25 24 22 19 17 16 16 15 14 13
4 3 10 12 14 12 15 16 19 19 10 14 14 9 7 4 2 5 8 14 12 16 22 25 29 30 30 29 30 29 29 29 29 29 30 29 27 26 26 25 26 25 24 21 19 17 16 15 14
3 4 10 12 15 13 14 16 15 17 14 12 10 10 7 6 7 8 10 13 18 19 22 25 28 31 31 30 30 29 28 29 29 28 30 30 28 26 26 26 26 26 25 24 23 20 17 15 15
6 10 13 14 12 9 8 10 16 13 13 12 9 8 6 10 9 9 10 14 18 22 23 26 27 29 31 31 31 30 29 29 29 28 30 30 29 27 27 27 27 27 26 25 24 23 21 18 16
3 6 12 11 9 6 9 9 10 12 10 10 12 8 7 8 10 10 10 11 13 19 22 25 27 29 29 28 29 30 29 29 29 28 30 29 28 27 27 28 28 28 28 26 25 25 24 22 19
5 9 10 8 7 8 11 9 9 10 14 15 14 13 10 10 10 11 11 12 14 16 19 24 26 27 28 27 27 27 27 28 28 27 29 27 25 25 24 27 29 29 29 27 26 28 26 24 19
9 6 9 11 12 12 13 11 9 9 14 14 11 12 11 11 11 12 14 15 16 17 15 22 24 26 27 26 25 25 24 25 26 26 27 25 24 23 24 26 27 28 28 26 27 29 26 22 17
7 8 9 13 15 15 14 12 11 10 10 11 10 11 10 11 12 13 13 13 13 14 15 19 24 26 26 24 24 22 22 23 24 26 26 25 23 22 22 22 23 24 24 21 24 23 21 20 18
8 13 11 10 11 12 10 8 10 13 9 9 10 10 10 11 12 13 13 13 13 13 15 17 24 24 25 24 22 22 21 21 22 24 25 23 19 19 21 19 21 20 19 19 19 18 20 20 21
10 10 14 17 17 16 16 13 11 11 10 9 9 10 10 11 11 11 12 13 14 14 15 14 22 23 24 22 21 21 21 21 23 23 24 24 19 17 19 19 20 20 19 18 16 15 15 14 16
13 16 14 12 11 9 13 10 7 7 8 8 8 8 9 9 11 11 12 13 14 14 15 14 20 24 25 22 21 20 21 23 22 22 24 24 23 21 19 17 18 18 20 20 18 16 12 10 11
17 13 11 8 8 10 9 9 7 7 6 6 7 8 9 9 10 11 11 11 12 13 14 14 19 24 25 23 22 22 22 23 22 22 24 25 26 23 21 16 14 17 21 21 18 15 12 11 13
9 8 7 7 8 7 5 5 8 5 4 5 6 8 8 8 10 10 11 11 11 12 13 13 20 22 23 22 22 21 22 23 22 22 22 24 26 26 23 17 15 21 21 17 10 11 12 12 12
8 6 7 6 3 4 5 6 7 4 4 4 6 7 8 8 10 10 10 11 11 12 12 13 15 18 21 21 21 21 21 21 22 21 21 24 25 26 24 19 18 22 18 13 13 12 12 13 13
5 6 6 8 4 3 2 8 8 4 2 3 6 7 8 9 9 9 10 10 11 11 11 12 12 17 20 19 19 17 17 19 21 20 22 24 24 26 24 19 20 21 14 12 13 14 13 12 13
6 6 5 6 3 2 3 9 8 6 3 3 5 6 7 8 8 9 9 10 10 11 12 12 13 13 14 11 13 13 13 13 14 20 24 25 25 25 23 19 18 17 13 15 16 15 15 12 12
5 6 4 6 5 2 3 7 9 7 4 4 3 4 5 7 8 9 9 9 9 10 11 11 11 11 12 11 10 9 10 10 15 20 22 23 25 25 22 19 15 15 12 14 15 15 12 12 11
3 5 6 3 5 3 4 7 11 9 7 5 5 1 6 8 8 8 8 9 9 9 10 12 11 11 12 16 13 13 7 9 9 11 9 21 25 24 23 21 18 16 12 12 14 15 14 13 12
4 6 6 4 3 4 7 3 8 10 8 7 3 5 8 8 7 7 8 8 8 8 8 9 11 10 12 15 11 13 12 12 13 11 10 20 23 23 23 22 21 16 13 13 14 14 14 13 11
5 4 5 6 5 4 6 5 5 9 8 6 5 8 8 7 8 8 8 8 8 8 8 8 10 9 11 12 10 11 10 10 11 12 12 11 17 21 22 23 21 17 13 12 14 15 14 12 11
7 7 7 4 4 5 4 6 4 3 4 6 7 7 7 8 8 8 8 7 7 8 8 8 9 10 9 9 9 11 12 12 14 14 12 12 10 13 19 23 21 19 15 13 14 15 16 13 12
5 7 2 3 4 3 2 1 5 7 9 7 4 5 7 8 8 8 8 8 8 9 9 9 10 11 10 10 10 11 11 11 12 13 13 14 12 12 11 20 18 17 17 18 16 15 15 14 13
6 6 4 5 6 5 4 3 6 8 6 3 2 6 8 8 7 8 8 8 8 9 9 9 10 11 11 11 11 9 9 9 8 11 12 12 11 11 16 20 20 20 21 20 16 14 15 13 13
7 5 1 4 7 6 1 6 5 6 5 2 6 7 8 8 8 8 8 8 8 8 9 9 10 11 11 11 11 10 9 10 10 10 9 8 11 16 20 20 18 19 20 18 15 13 15 15 12
4 4 4 4 6 6 8 3 5 6 2 6 6 7 8 7 7 8 7 8 7 8 8 9 9 10 10 11 11 14 10 10 10 9 12 11 14 18 17 15 16 16 17 16 15 15 16 16 13
2 3 2 4 4 3 6 1 5 7 4 3 5 7 7 7 7 7 7 8 8 8 8 8 9 10 10 10 11 12 11 10 11 9 11 12 13 16 14 15 15 17 17 16 16 16 18 17 13
3 4 4 3 5 4 5 1 7 6 3 3 6 7 7 8 7 8 8 8 8 9 9 9 9 10 10 10 11 11 11 10 12 12 12 16 14 15 16 16 16 18 18 17 17 18 19 17 12
Wind_Direction
309 297 267 249 81 72 66 53 48 56 76 61 59 69 74 56 45 67 304 315 333 353 14 13 20 24 25 25 24 23 22 20 17 14 10 5 359 350 343 338 335 333 329 326 323 317 308 298 291
301 299 300 268 89 82 70 60 54 40 85 87 59 56 64 62 46 31 318 323 337 7 26 17 21 23 24 24 24 23 22 21 19 16 12 8 5 0 353 344 338 334 329 323 318 314 307 297 287
276 272 282 47 63 63 67 54 83 62 50 66 74 49 50 39 25 345 313 327 360 16 27 22 20 21 23 22 21 21 20 19 18 16 13 11 8 5 3 357 348 339 333 325 316 309 305 299 287
293 258 74 75 74 51 48 31 41 86 58 55 82 72 73 44 333 323 344 4 16 19 19 20 19 18 18 19 17 17 16 15 15 14 12 10 9 8 6 5 1 352 342 333 322 310 302 299 292
224 90 83 86 81 64 44 49 53 60 61 61 77 87 82 55 45 34 23 22 20 19 16 15 16 14 12 13 13 11 11 11 10 11 9 6 6 7 7 6 3 358 352 342 331 316 304 297 294
253 110 97 96 100 91 58 39 59 62 55 44 87 101 75 46 32 46 37 30 26 19 17 14 14 11 8 6 8 5 6 7 5 7 6 3 1 2 3 4 1 357 353 348 340 326 308 296 291
47 84 104 113 105 80 69 57 46 55 44 14 19 89 74 36 23 41 44 32 29 22 17 14 13 9 5 1 2 1 1 3 1 3 3 1 359 358 358 359 356 354 351 348 343 338 324 303 288
344 100 103 103 94 91 74 67 54 45 48 28 31 66 62 32 31 30 37 32 25 23 17 14 10 8 3 357 359 358 357 360 358 359 360 359 356 355 354 355 350 350 348 345 344 342 335 320 296
19 67 49 40 93 106 113 101 84 83 79 70 67 71 65 41 36 31 27 25 21 20 16 14 8 6 2 357 357 355 355 358 357 356 356 356 354 350 351 351 347 348 345 344 346 343 337 331 311
39 67 53 46 77 93 88 89 103 89 76 78 76 69 61 49 35 31 27 21 17 15 11 12 6 5 2 359 356 353 354 355 354 353 352 354 352 348 350 347 344 345 342 345 345 341 339 338 327
53 87 89 72 82 91 86 71 70 101 67 63 67 64 51 50 40 31 26 22 17 12 10 10 6 4 3 358 355 351 351 352 351 350 351 353 350 348 349 345 340 339 339 343 342 341 335 330 325
78 68 90 97 93 92 89 82 65 70 90 82 70 63 55 45 43 32 23 18 15 13 10 8 4 3 1 357 354 351 350 350 348 346 350 352 351 350 347 342 336 335 336 339 340 332 327 328 324
88 86 76 80 80 85 91 90 95 97 101 96 83 68 57 51 40 37 25 20 15 12 9 5 1 3 360 358 355 351 349 349 346 345 348 352 354 348 343 338 335 332 337 339 332 326 327 326 323
110 114 114 110 109 105 104 105 100 115 123 112 96 78 62 55 47 35 26 19 14 11 8 3 1 2 360 358 356 351 348 347 345 344 346 352 354 344 340 334 332 331 337 334 327 325 325 323 324
123 118 123 132 125 141 128 98 109 133 144 121 104 95 78 59 56 41 31 22 14 10 8 4 0 1 359 355 355 351 348 347 344 344 346 351 350 342 339 332 329 331 334 330 327 324 327 327 328
161 152 139 155 159 170 258 139 133 148 128 94 76 70 61 61 57 47 34 25 16 12 9 6 2 360 357 354 354 348 346 345 342 343 346 350 346 343 340 333 329 333 334 331 329 332 334 329 325
202 214 133 151 156 171 236 125 140 156 155 121 79 59 44 43 50 47 35 29 18 14 9 4 2 360 355 353 351 345 345 342 339 341 346 347 344 343 340 331 332 334 333 332 333 333 329 327 324
350 345 113 132 122 221 208 119 138 167 194 100 71 54 46 34 40 46 35 32 20 13 9 3 360 358 354 353 347 343 343 341 338 341 346 345 343 341 337 332 335 334 331 332 330 327 328 325 322
341 353 65 104 102 283 181 144 158 169 180 68 50 31 41 37 31 40 38 33 19 11 7 0 359 356 355 354 347 343 341 338 335 341 343 340 340 339 335 336 335 333 330 328 326 327 325 325 324
339 336 63 124 119 268 180 175 163 167 135 65 1 11 24 36 22 25 31 31 19 13 4 354 356 353 354 351 342 337 332 330 331 338 335 336 338 337 336 336 335 331 327 325 326 326 322 322 330
327 19 0 358 126 241 237 217 171 157 144 174 226 102 39 33 21 15 23 25 17 14 4 352 350 350 350 350 344 339 329 331 335 335 332 336 337 335 334 334 335 330 326 323 325 322 323 321 319
20 36 335 293 219 220 178 260 161 162 179 198 190 61 41 36 22 19 23 20 14 13 3 351 347 346 348 350 344 341 339 336 334 332 329 333 334 332 333 335 334 329 326 323 323 325 318 314 315
332 338 282 274 241 265 193 246 136 152 193 178 86 50 34 30 26 26 25 18 12 11 1 349 344 344 346 347 342 338 333 331 329 329 329 330 330 331 334 335 333 328 325 323 322 320 315 311 308
288 267 228 251 243 262 197 186 151 175 151 93 52 31 25 25 29 25 17 12 10 9 358 347 345 344 344 343 339 337 332 332 331 332 332 331 329 330 333 334 331 326 325 324 321 318 314 310 305
320 325 315 273 225 216 80 227 99 84 73 67 29 22 32 29 25 15 7 6 7 1 354 348 346 342 343 341 339 334 331 329 328 331 330 330 331 331 329 332 328 326 326 325 324 320 315 309 306
326 349 17 318 311 313 196 124 114 110 111 131 35 48 38 29 26 17 10 11 3 355 351 347 344 340 341 340 337 330 329 328 326 327 326 327 327 324 326 330 328 327 327 327 325 323 320 314 311
343 36 8 280 278 279 165 100 134 147 174 98 33 40 35 31 27 15 8 9 360 353 350 345 342 339 338 338 334 329 329 327 327 325 323 324 325 326 329 329 330 329 328 327 327 322 322 318 313
347 331 312 307 331 309 296 122 165 167 102 29 16 36 32 30 24 11 6 5 358 352 346 343 340 335 333 335 334 333 327 327 328 326 327 326 325 326 327 330 331 330 328 327 326 323 323 320 316
213 231 284 278 240 269 297 308 101 109 84 11 23 49 40 33 24 10 5 359 351 349 344 341 337 335 334 333 330 326 326 328 329 327 327 326 323 326 329 331 332 331 328 327 325 323 324 319 316
335 343 339 312 308 289 283 274 129 135 145 58 48 57 50 42 28 13 3 352 348 346 342 340 337 338 334 331 329 326 328 329 329 328 328 326 322 327 330 332 332 330 328 324 322 322 322 316 313
Height
1522 1521 1524 1526 1529 1539 1553 1556 1552 1551 1557 1564 1563 1567 1577 1585 1591 1603 1603 1596 1594 1590 1586 1582 1579 1576 1573 1570 1567 1565 1562 1560 1558 1556 1554 1552 1551 1549 1548 1546 1545 1544 1543 1542 1542 1541 1541 1541 1541
1523 1523 1526 1528 1536 1555 1564 1561 1561 1560 1561 1564 1569 1575 1581 1591 1597 1600 1599 1597 1595 1592 1587 1583 1579 1576 1573 1570 1568 1565 1563 1560 1558 1555 1553 1551 1550 1548 1546 1545 1543 1542 1541 1540 1539 1539 1538 1538 1538
1524 1526 1530 1534 1548 1562 1568 1567 1565 1566 1567 1568 1576 1583 1590 1599 1601 1602 1601 1599 1597 1593 1589 1584 1580 1577 1574 1571 1568 1565 1562 1560 1557 1555 1553 1551 1548 1546 1544 1542 1541 1540 1539 1537 1536 1536 1535 1535 1535
1526 1529 1535 1550 1566 1571 1571 1570 1564 1566 1571 1575 1579 1590 1599 1604 1604 1604 1602 1600 1597 1593 1589 1585 1581 1578 1574 1571 1568 1565 1562 1559 1557 1554 1552 1549 1547 1545 1542 1540 1538 1537 1536 1535 1534 1533 1532 1532 1532
1530 1532 1543 1561 1570 1577 1575 1574 1571 1572 1577 1583 1584 1596 1603 1606 1606 1605 1603 1600 1596 1593 1589 1586 1582 1578 1575 1572 1569 1566 1563 1559 1556 1553 1550 1548 1545 1543 1540 1538 1536 1534 1532 1531 1531 1530 1529 1529 1528
1532 1532 1551 1567 1574 1579 1581 1580 1579 1581 1584 1587 1590 1596 1606 1608 1607 1606 1603 1600 1596 1593 1589 1586 1582 1579 1575 1572 1569 1566 1562 1559 1556 1552 1549 1546 1543 1540 1538 1535 1533 1531 1529 1528 1527 1526 1525 1525 1524
1532 1538 1554 1565 1573 1579 1583 1585 1587 1589 1589 1591 1592 1597 1607 1609 1608 1606 1603 1600 1596 1592 1589 1585 1582 1578 1575 1572 1569 1565 1561 1558 1554 1551 1548 1544 1541 1538 1535 1532 1530 1528 1526 1524 1523 1521 1521 1521 1520
1536 1541 1553 1562 1572 1582 1588 1589 1593 1593 1596 1597 1595 1601 1609 1610 1608 1606 1603 1600 1596 1592 1588 1584 1581 1577 1574 1570 1567 1563 1560 1556 1552 1548 1544 1541 1538 1535 1532 1529 1526 1524 1522 1520 1518 1517 1516 1515 1515
1539 1552 1566 1567 1574 1583 1587 1591 1596 1601 1601 1602 1604 1607 1610 1610 1608 1605 1602 1599 1595 1591 1587 1584 1580 1576 1572 1568 1565 1561 1557 1553 1549 1545 1541 1537 1534 1531 1528 1525 1522 1520 1517 1515 1513 1512 1511 1510 1510
1549 1566 1578 1577 1577 1584 1589 1592 1596 1602 1603 1606 1608 1610 1610 1609 1607 1604 1601 1598 1594 1591 1587 1583 1579 1575 1571 1566 1562 1558 1554 1550 1546 1542 1538 1534 1530 1526 1523 1520 1518 1515 1513 1510 1508 1507 1506 1505 1504
1561 1574 1582 1585 1586 1589 1592 1596 1599 1602 1608 1610 1611 1611 1611 1609 1607 1605 1602 1600 1596 1593 1588 1584 1579 1575 1570 1565 1560 1556 1551 1548 1544 1540 1536 1531 1527 1523 1519 1515 1512 1510 1507 1504 1503 1501 1500 1499 1498
1571 1579 1583 1589 1590 1592 1595 1599 1603 1605 1610 1612 1612 1612 1611 1610 1608 1605 1603 1600 1597 1593 1588 1584 1579 1574 1569 1564 1559 1554 1550 1546 1542 1538 1534 1529 1524 1520 1516 1512 1509 1506 1503 1500 1497 1495 1494 1493 1492
1577 1586 1589 1591 1593 1595 1598 1601 1605 1610 1612 1613 1613 1613 1612 1611 1609 1607 1604 1601 1597 1593 1588 1583 1578 1573 1567 1562 1558 1553 1549 1545 1541 1537 1533 1528 1523 1518 1513 1510 1506 1503 1500 1496 1493 1491 1488 1487 1486
1580 1586 1591 1595 1596 1598 1600 1603 1606 1611 1612 1613 1613 1613 1613 1611 1610 1607 1604 1601 1597 1593 1588 1583 1578 1572 1567 1562 1557 1553 1548 1544 1539 1535 1531 1527 1521 1516 1512 1507 1504 1500 1497 1493 1490 1487 1484 1481 1480
1581 1587 1592 1595 1596 1599 1600 1605 1608 1611 1611 1612 1613 1613 1613 1612 1610 1608 1605 1601 1597 1593 1588 1582 1577 1572 1567 1562 1557 1552 1547 1542 1538 1533 1529 1525 1519 1515 1510 1506 1502 1498 1494 1490 1486 1483 1480 1477 1475
1579 1583 1589 1593 1594 1597 1601 1605 1609 1610 1611 1612 1613 1613 1613 1612 1611 1608 1606 1602 1597 1592 1587 1582 1576 1570 1565 1560 1556 1551 1546 1541 1536 1532 1527 1522 1517 1513 1508 1503 1500 1496 1491 1487 1483 1479 1475 1472 1469
1575 1574 1585 1591 1592 1593 1595 1602 1608 1610 1611 1612 1613 1614 1614 1613 1611 1609 1606 1602 1597 1592 1587 1581 1575 1569 1564 1559 1554 1549 1544 1539 1534 1530 1525 1520 1515 1510 1506 1501 1498 1493 1489 1485 1481 1476 1472 1468 1464
1573 1566 1573 1586 1591 1591 1593 1602 1607 1609 1611 1611 1613 1613 1614 1613 1612 1609 1605 1601 1597 1592 1586 1581 1575 1569 1563 1557 1552 1546 1541 1537 1532 1528 1524 1518 1513 1508 1504 1500 1496 1491 1487 1482 1478 1474 1469 1466 1461
1569 1569 1575 1587 1591 1592 1593 1601 1606 1609 1610 1611 1612 1613 1613 1612 1612 1609 1605 1600 1596 1591 1585 1580 1574 1568 1562 1555 1549 1544 1539 1534 1530 1526 1521 1516 1512 1507 1502 1498 1493 1489 1485 1481 1477 1472 1467 1463 1459
1570 1573 1576 1588 1591 1591 1593 1598 1602 1606 1609 1611 1612 1613 1612 1611 1610 1608 1604 1599 1594 1590 1584 1578 1573 1567 1561 1556 1550 1545 1539 1534 1530 1525 1520 1515 1510 1505 1501 1496 1492 1487 1483 1478 1474 1470 1466 1462 1460
1573 1579 1583 1585 1592 1592 1593 1596 1600 1604 1608 1610 1611 1611 1611 1610 1608 1606 1602 1598 1594 1588 1583 1577 1572 1566 1561 1555 1549 1543 1537 1532 1526 1520 1516 1512 1508 1503 1499 1494 1490 1485 1480 1476 1472 1468 1465 1460 1458
1580 1584 1584 1583 1591 1589 1594 1596 1598 1601 1606 1607 1608 1609 1609 1608 1607 1604 1601 1596 1592 1587 1582 1576 1571 1565 1560 1554 1548 1542 1536 1530 1525 1520 1514 1510 1505 1500 1496 1491 1486 1482 1477 1473 1469 1465 1462 1458 1455
1584 1582 1583 1582 1585 1587 1590 1593 1595 1599 1603 1604 1606 1607 1608 1607 1605 1602 1599 1596 1591 1586 1581 1575 1569 1564 1558 1553 1547 1541 1536 1530 1524 1519 1513 1507 1502 1497 1493 1488 1483 1478 1474 1469 1465 1461 1458 1455 1452
1583 1581 1581 1583 1586 1589 1575 1587 1591 1597 1598 1603 1605 1607 1607 1606 1604 1601 1598 1595 1590 1585 1579 1573 1568 1562 1556 1551 1545 1540 1534 1528 1522 1516 1510 1504 1499 1494 1489 1484 1479 1474 1470 1465 1461 1457 1454 1451 1448
1583 1584 1587 1587 1589 1582 1573 1577 1597 1601 1602 1604 1606 1606 1606 1605 1603 1600 1596 1592 1588 1582 1577 1571 1565 1560 1554 1549 1543 1538 1532 1527 1521 1515 1509 1502 1496 1491 1486 1481 1476 1471 1466 1462 1457 1453 1449 1447 1444
1586 1587 1601 1603 1593 1580 1574 1584 1604 1602 1604 1605 1605 1605 1604 1603 1601 1599 1595 1591 1586 1581 1575 1569 1564 1558 1552 1547 1541 1536 1530 1525 1520 1514 1508 1502 1496 1490 1484 1479 1473 1468 1463 1458 1453 1449 1445 1442 1439
1591 1593 1594 1598 1590 1587 1576 1600 1604 1602 1603 1604 1604 1604 1603 1602 1600 1597 1594 1589 1584 1579 1574 1569 1563 1557 1551 1545 1539 1533 1528 1523 1517 1512 1506 1501 1494 1489 1482 1477 1471 1465 1459 1455 1450 1445 1441 1438 1435
1594 1594 1595 1597 1602 1600 1580 1581 1597 1601 1601 1603 1603 1602 1602 1601 1599 1596 1592 1588 1583 1578 1573 1567 1561 1555 1549 1543 1537 1532 1526 1521 1515 1509 1503 1497 1492 1486 1480 1474 1468 1462 1456 1452 1447 1442 1437 1434 1431
1593 1593 1592 1594 1596 1605 1599 1595 1596 1600 1601 1602 1601 1601 1601 1599 1597 1594 1591 1586 1582 1577 1571 1565 1559 1553 1547 1541 1535 1529 1524 1518 1512 1506 1501 1495 1489 1484 1478 1471 1465 1459 1453 1448 1443 1439 1434 1431 1428
1594 1594 1595 1603 1598 1592 1596 1600 1597 1598 1599 1600 1600 1600 1599 1598 1596 1593 1589 1585 1580 1575 1569 1564 1558 1552 1546 1539 1533 1527 1522 1515 1509 1503 1497 1492 1487 1481 1476 1469 1463 1456 1451 1446 1441 1436 1431 1428 1425